Volver al catálogo

CZ-6A DEB

ActivoPO
NORAD 61422·DEBRIS·🇨🇳 China

Lanzado Aug 6, 2024 desde Taiyuan Satellite Launch Center

Loading…

Próximos Pases (próximas 24 horas)

TLE

ActualizadoSource: Space-Track

Época: Sep 14, 2026, 22:33 UTC

1 61422U 24140YP  26257.93978565  .00000656  00000-0  42891-3 0  9994
2 61422  88.7419 246.4684 0200652  38.1772 323.3420 13.91645919104876

Sigue CZ-6A DEB en tiempo real con AllMySat

Download on the App Store